RH
52 76 85 87 88 87 91 88 91 95 93 98 99 99 96 91 93 94 94 85 80 77 71 72 66 67 75 73 75 84 86 83 86 86 82 66 47 51 61 67 71 73 73 74 74 71 70 66 59 62 69 68 69 69 67 64 63 63 62 61 60 61 64 62 64 71 73 72 73 70 64 62 64 65 68 71 74 73 71 71 72 75 76 73 67 64 64 63 63 64 65 71 75 76 75 78 77
61 78 83 86 87 88 90 87 94 99 95 100 98 99 99 92 92 95 94 84 79 76 72 68 64 72 75 68 69 80 88 92 86 79 80 60 47 56 61 65 67 71 74 75 74 69 67 62 61 69 74 74 75 74 71 68 65 64 63 65 66 66 65 64 64 68 71 68 67 66 65 67 67 66 68 71 73 73 71 71 74 78 78 76 69 66 67 65 63 62 68 74 75 74 75 77 77
74 83 85 88 87 88 89 88 96 99 97 100 99 99 98 94 94 93 88 81 77 73 73 67 67 76 76 76 76 79 92 99 82 70 75 59 49 57 59 64 67 69 71 73 71 67 65 62 68 75 77 76 76 75 73 70 68 69 70 72 74 74 73 73 68 64 68 69 67 66 67 70 71 69 70 72 73 73 73 73 75 80 78 77 74 70 69 67 64 62 68 75 72 72 74 75 76
85 87 89 91 88 90 93 95 97 98 97 98 98 96 97 96 93 88 82 81 76 72 73 66 73 80 78 87 85 84 97 100 78 61 68 58 48 54 56 63 68 68 71 72 68 66 62 64 74 76 76 77 75 75 74 72 71 72 75 76 76 77 78 76 71 65 70 75 75 74 70 72 72 72 74 75 76 75 77 75 75 79 78 76 75 73 72 70 68 64 67 73 71 71 72 73 76
88 88 89 90 92 96 97 98 96 97 97 97 96 92 97 93 87 86 81 81 76 71 70 67 80 84 79 89 89 92 98 97 80 56 55 53 48 52 54 63 69 68 69 66 64 62 56 64 75 75 76 76 74 74 75 75 74 75 75 77 77 76 78 77 71 70 74 79 79 77 74 74 73 72 73 76 79 78 79 79 78 79 77 75 74 74 74 72 71 67 68 71 70 72 73 72 74
87 90 91 91 93 96 97 98 97 99 97 95 95 91 95 90 86 87 81 79 75 71 69 69 79 83 87 93 91 95 97 87 73 56 48 49 50 52 55 63 68 66 67 63 62 59 54 65 71 72 76 73 72 73 76 76 76 75 74 77 78 76 78 77 73 74 76 79 80 78 75 75 75 73 71 74 79 78 78 80 79 79 77 74 72 73 74 74 72 69 72 72 71 73 72 72 74
89 94 95 94 92 94 99 99 98 101 97 95 96 94 94 92 86 82 81 79 75 72 70 72 72 80 94 96 92 96 99 80 60 54 47 48 51 52 57 65 68 67 67 63 64 61 57 66 67 69 74 73 74 74 75 76 76 76 76 77 77 77 77 76 74 75 74 75 75 73 74 76 76 75 74 73 75 76 76 78 78 78 77 73 72 72 71 72 71 70 73 73 73 72 71 73 76
90 97 96 97 96 97 99 98 99 98 97 95 95 96 92 88 80 76 79 75 77 76 73 74 67 80 97 94 96 100 97 74 54 54 49 50 52 53 60 67 69 67 68 65 67 64 58 66 66 70 75 76 77 75 76 76 78 78 79 78 75 79 78 76 75 75 73 72 72 72 75 78 77 76 75 74 75 76 76 77 77 77 76 74 73 72 69 68 70 71 73 73 72 71 71 73 75
86 95 95 96 99 99 98 98 98 95 98 95 92 94 86 81 74 72 76 73 75 75 76 73 64 82 100 96 99 100 93 70 57 58 52 53 53 55 63 67 67 65 67 64 67 62 57 63 62 71 77 76 78 76 77 77 78 77 78 78 76 83 80 75 75 76 75 75 76 77 79 78 78 76 75 75 76 78 77 78 79 77 76 75 75 74 71 68 70 72 73 74 73 71 72 74 76
89 95 94 97 99 99 97 98 97 95 98 96 96 94 82 77 72 69 73 75 74 75 77 70 68 87 98 97 99 98 90 70 61 62 56 57 55 59 64 65 64 62 63 62 67 63 57 54 49 67 76 75 79 76 77 77 78 77 79 82 82 83 77 73 75 78 78 78 78 78 79 77 79 79 77 76 76 78 78 78 78 77 74 74 75 75 74 73 73 74 74 75 73 73 74 77 78
96 96 94 98 99 99 98 98 99 98 97 96 99 93 81 75 72 72 73 76 75 79 79 71 81 93 94 98 99 96 88 70 63 63 61 61 59 60 60 62 64 58 58 59 66 64 55 42 40 63 74 76 79 76 76 76 78 78 80 85 85 81 75 75 77 78 78 79 79 78 79 78 80 81 81 79 77 80 78 77 76 74 74 75 75 73 74 75 75 74 74 74 73 74 76 79 80
97 98 96 99 99 99 98 99 99 99 99 96 96 91 80 73 73 77 78 80 80 81 77 73 83 87 92 100 99 96 86 73 66 64 64 64 60 58 56 58 62 58 57 58 62 62 51 36 40 64 74 76 80 78 75 76 80 76 79 86 83 79 77 77 78 78 78 80 80 79 80 80 80 81 83 82 78 78 76 76 77 75 74 76 75 73 74 74 74 74 74 74 73 75 78 82 81
95 98 98 99 96 98 97 98 98 97 99 96 96 90 78 73 76 78 78 82 79 79 77 72 74 78 92 100 97 95 88 76 68 67 65 63 59 56 55 57 60 59 58 58 60 60 50 37 38 56 71 76 80 78 74 77 74 70 81 86 80 79 78 77 76 78 80 82 80 77 79 80 82 83 84 87 83 77 74 73 72 71 72 74 74 74 74 74 76 75 76 75 73 76 79 80 79
94 95 97 98 94 98 96 98 98 95 98 96 95 87 77 77 77 73 74 82 78 75 77 72 69 77 95 101 97 93 89 79 69 69 64 60 59 55 56 59 61 61 60 60 62 59 49 39 33 46 67 76 78 77 78 74 66 72 83 82 79 80 79 76 73 76 79 81 80 77 79 83 86 85 85 90 85 77 78 75 69 70 73 75 77 77 76 77 78 76 76 74 73 76 78 78 79
94 92 96 100 97 99 95 98 96 90 96 96 93 81 77 80 75 70 71 81 82 76 74 72 68 75 91 97 97 93 87 79 71 68 62 60 59 56 59 62 64 64 63 63 62 54 44 39 36 52 72 77 80 79 75 66 67 81 81 77 79 79 78 75 69 72 77 79 80 79 81 85 85 83 84 87 80 76 81 84 79 77 78 79 83 82 78 79 79 76 75 74 74 76 77 78 79
96 93 98 100 96 98 96 97 92 89 96 96 90 79 78 80 72 71 71 75 82 77 70 70 65 68 81 87 91 89 82 78 73 66 60 62 61 61 63 65 67 67 66 63 55 45 39 38 41 62 77 78 79 72 66 67 76 83 78 78 77 74 76 74 69 69 73 77 78 79 82 85 85 81 81 82 79 79 80 82 84 85 82 81 83 82 78 78 78 77 75 75 77 76 77 78 78
97 96 100 100 97 98 96 94 89 89 96 96 91 79 78 82 73 72 73 72 77 74 66 70 69 67 74 80 84 84 82 80 71 64 61 62 64 65 67 67 69 67 63 56 46 41 40 39 48 69 75 73 73 70 71 79 81 75 72 76 74 74 77 76 75 72 73 77 77 78 80 86 89 83 80 79 77 79 79 78 83 85 82 81 81 80 77 78 78 78 77 77 77 75 76 78 79
96 98 100 98 99 98 92 91 89 86 91 96 93 80 77 82 78 73 73 74 74 72 69 73 75 72 72 76 80 83 86 80 67 63 62 62 65 65 67 67 66 61 54 47 43 44 42 43 62 77 77 75 76 77 78 80 78 68 65 70 74 79 79 80 79 73 75 79 76 75 79 85 90 85 84 83 76 79 84 84 83 82 81 80 80 80 79 80 79 80 78 76 76 74 76 78 78
95 98 101 98 96 95 92 91 89 87 88 92 91 79 73 78 77 71 75 79 75 79 81 78 82 82 79 80 84 88 87 77 65 62 60 59 63 61 60 64 63 56 48 44 45 45 42 51 72 80 79 80 78 80 76 75 77 69 65 71 76 79 81 83 79 73 76 77 73 72 77 82 85 84 84 84 81 82 87 84 79 78 80 79 79 79 79 80 80 79 77 74 73 73 77 78 76
94 95 99 98 94 93 93 90 87 86 86 90 92 79 72 76 74 70 75 81 78 84 88 85 95 95 87 88 89 92 90 80 69 62 59 58 60 57 53 55 56 52 46 45 44 42 45 59 73 75 76 79 77 76 72 74 76 71 70 73 77 79 82 84 80 77 76 74 70 69 74 75 79 83 82 83 84 85 86 82 78 77 81 80 77 77 76 76 77 76 74 72 72 73 74 76 76
93 94 96 94 92 94 96 92 87 84 83 87 88 79 76 77 74 71 73 81 84 84 78 72 86 90 87 95 93 91 93 87 75 64 61 59 60 59 53 51 50 49 48 46 43 42 52 64 68 69 73 75 74 73 72 75 74 70 71 75 79 80 81 83 80 78 74 72 69 68 70 70 74 80 83 84 85 86 85 83 83 82 81 79 76 75 75 75 75 76 75 75 75 75 74 75 75
91 94 93 91 90 94 98 93 90 86 82 83 84 82 80 76 73 72 69 76 83 80 70 59 67 71 73 90 95 93 93 87 75 65 64 62 60 59 54 52 52 53 52 49 47 49 57 64 65 67 69 70 70 71 74 76 73 69 70 75 79 76 77 77 73 71 71 69 68 67 69 72 73 75 78 81 83 85 82 81 84 82 78 76 75 75 76 76 76 78 78 78 77 77 77 76 74
91 94 90 91 91 93 97 93 91 85 82 83 82 82 79 74 75 71 65 69 73 73 68 61 66 66 66 83 91 91 89 80 71 65 66 63 58 55 51 52 54 54 55 54 54 56 59 60 63 66 67 67 67 69 74 74 73 73 73 75 75 71 70 68 66 66 67 68 67 66 67 71 73 70 71 75 78 80 78 78 79 77 73 71 71 74 76 76 77 79 80 80 80 79 77 76 73
91 93 88 93 95 94 95 93 91 86 86 86 79 79 79 77 79 73 64 66 69 73 71 66 72 73 73 81 84 82 80 75 71 69 68 63 56 53 52 53 53 55 58 59 58 59 60 61 63 65 65 66 65 67 71 73 74 75 75 73 70 68 66 64 64 64 66 67 66 65 65 68 69 65 65 71 75 75 74 72 70 69 67 67 69 72 75 75 78 81 83 83 83 80 76 73 72
91 87 83 90 98 97 93 92 91 86 87 85 79 86 86 79 78 73 66 67 70 74 75 73 77 79 79 80 84 84 80 79 77 76 75 68 61 57 56 55 54 58 62 60 59 61 62 63 63 63 63 64 65 66 69 71 72 73 74 72 68 65 65 64 64 64 65 66 65 65 64 65 66 62 59 64 68 67 66 64 63 64 64 66 68 71 75 78 82 83 84 84 82 79 74 70 70
85 77 78 86 96 98 94 93 91 87 86 81 82 91 88 76 73 72 69 68 70 75 79 80 81 84 84 83 85 85 82 79 77 76 76 71 65 61 59 56 53 60 65 60 59 62 63 63 62 62 64 63 64 66 68 69 69 69 70 68 65 63 64 65 64 65 66 66 65 63 62 63 64 61 53 53 58 60 59 58 58 60 62 66 71 75 79 82 83 83 83 82 81 79 74 70 70
77 74 80 88 95 98 95 96 93 89 87 78 82 95 87 75 76 79 74 68 71 77 81 82 84 87 88 87 86 86 81 75 72 74 75 70 65 62 59 54 53 62 66 62 60 63 64 61 61 63 64 64 64 66 67 66 64 65 64 63 63 61 63 65 63 64 65 65 64 62 60 61 62 62 54 47 49 52 53 55 56 58 61 68 77 81 83 84 84 83 82 81 81 77 73 72 71
76 76 82 89 94 97 92 96 92 86 90 80 80 92 85 76 82 83 75 70 71 76 82 83 84 88 89 89 89 88 83 76 74 75 73 66 61 60 57 51 53 62 65 62 62 65 66 61 61 63 64 64 64 65 66 63 62 61 59 62 64 61 63 64 61 61 62 61 61 59 58 59 60 61 58 52 49 49 50 53 57 62 67 73 80 84 85 85 84 82 81 81 79 75 72 72 72
77 77 86 92 92 96 92 95 91 87 95 81 74 86 87 85 86 78 72 72 72 75 82 83 84 87 87 88 89 88 84 81 79 75 69 62 58 57 55 52 55 62 63 64 65 67 67 64 62 63 64 65 64 65 66 62 59 58 59 62 62 61 63 63 60 60 59 59 59 59 57 56 59 60 60 58 56 55 54 55 58 64 72 79 84 86 85 84 82 80 79 79 77 72 71 71 71
78 76 87 95 94 98 95 94 90 91 95 78 75 92 94 89 82 74 72 74 74 78 82 82 85 86 86 88 88 88 85 82 77 71 68 64 60 57 53 55 60 63 62 64 67 67 68 67 64 62 63 65 66 66 67 64 59 57 60 62 61 61 63 62 61 60 60 62 63 63 62 60 61 62 62 61 61 63 62 61 61 65 72 79 84 84 80 80 80 78 78 77 74 71 72 72 71
80 78 87 94 95 98 97 95 90 93 96 84 86 96 95 88 78 73 73 73 75 80 82 82 85 85 86 87 86 87 84 79 72 68 67 66 64 59 56 59 63 64 61 61 63 65 68 68 64 63 65 68 69 69 70 68 64 60 59 62 65 63 63 63 61 61 63 64 64 65 67 65 65 66 68 67 66 68 68 67 65 66 70 74 77 76 74 77 79 78 77 74 71 70 72 73 72
80 82 94 94 92 99 98 96 92 94 95 92 93 93 95 91 79 72 73 74 75 79 82 82 84 84 86 87 86 86 82 77 72 69 68 66 65 61 60 64 65 63 60 58 60 63 68 68 65 65 68 71 74 76 76 76 73 69 65 65 68 66 64 65 62 62 65 67 66 66 68 69 69 71 73 74 72 72 73 71 68 67 70 73 74 73 73 74 76 75 73 72 71 71 72 73 73
81 85 100 94 92 99 98 97 95 94 94 97 96 94 96 90 80 74 72 75 76 78 81 80 83 84 84 86 85 86 83 79 74 71 69 67 66 63 64 68 65 63 61 59 59 62 65 66 65 66 71 74 77 80 81 81 78 75 73 69 67 67 65 68 66 64 66 69 71 72 72 73 74 75 78 79 79 80 78 76 73 70 69 72 75 75 74 73 72 72 73 75 75 73 73 73 73
86 87 95 90 90 93 94 98 97 92 91 96 95 93 95 86 80 76 71 75 76 77 80 79 81 82 83 85 85 86 85 80 73 69 68 67 67 66 69 71 68 65 63 60 60 62 64 65 66 67 73 79 80 82 83 84 82 78 76 69 64 65 65 69 72 71 70 72 75 76 75 76 78 79 80 82 84 84 83 82 80 75 68 67 73 76 74 71 72 74 76 77 76 75 75 74 74
88 90 93 92 92 88 91 95 94 93 92 95 95 94 93 85 84 80 71 72 75 76 77 78 79 80 82 83 83 85 84 78 68 65 66 65 67 68 71 75 74 70 66 63 62 62 63 66 68 68 74 82 83 84 84 83 80 77 73 65 62 64 65 67 73 78 78 76 77 76 75 77 81 82 81 83 84 85 86 87 85 78 69 63 66 72 73 71 73 75 77 77 76 76 77 76 76
79 82 89 95 96 91 90 90 90 92 93 95 94 94 94 87 86 84 75 70 70 72 73 73 76 77 79 80 80 81 80 72 63 63 65 64 66 68 70 74 76 72 68 66 64 61 62 65 69 70 74 82 85 84 81 76 75 75 71 65 63 63 62 64 70 77 79 79 79 76 76 78 82 83 82 83 85 86 86 86 85 79 71 62 60 66 70 70 71 73 75 75 76 77 78 78 77
77 77 81 87 95 96 92 91 90 87 91 96 91 92 94 86 85 87 82 74 67 67 68 68 71 73 74 75 74 75 72 65 62 64 64 63 65 66 69 72 74 73 70 70 65 60 61 64 67 70 73 78 82 81 77 72 73 75 71 66 66 63 61 63 66 71 75 78 79 77 76 78 82 82 81 82 84 85 83 80 78 76 71 65 61 64 67 68 68 70 73 75 76 77 79 79 77
66 73 82 85 93 98 90 90 92 87 90 95 91 93 94 86 89 92 86 80 70 64 63 65 68 68 69 69 68 69 65 61 63 65 64 65 65 66 68 69 71 68 65 69 66 60 60 64 66 69 72 72 75 80 75 71 74 77 73 67 66 65 63 64 65 68 71 73 75 74 73 77 80 79 78 80 81 81 79 76 76 75 71 66 63 63 64 67 68 68 71 74 76 77 80 79 78
66 70 83 90 94 96 93 90 91 91 94 97 93 94 95 89 91 94 90 88 80 67 62 61 64 66 66 66 65 65 64 64 65 65 66 66 65 66 67 67 67 62 60 64 65 62 62 64 66 69 72 68 70 77 73 71 77 81 80 73 69 70 69 69 69 71 71 70 71 70 71 75 78 77 76 77 77 75 74 75 75 73 72 70 66 63 64 67 70 71 73 75 76 78 79 78 78
70 80 82 91 96 91 94 96 93 92 92 93 92 93 97 94 92 95 93 91 84 74 67 62 60 63 63 63 63 63 63 63 62 63 64 66 66 66 65 64 66 65 65 65 65 66 65 64 65 67 70 67 65 71 73 75 80 82 83 80 76 77 78 77 77 75 73 72 72 70 69 72 75 76 78 78 74 72 71 72 72 70 71 72 68 66 67 69 72 75 76 76 77 77 78 78 78
52 80 81 89 96 85 88 96 93 92 90 89 91 96 100 97 95 95 94 92 86 78 74 67 60 60 61 61 61 61 60 59 59 61 62 65 66 63 62 63 64 66 66 64 63 65 65 64 63 63 68 66 61 68 77 80 82 82 82 83 82 83 84 82 79 75 73 73 72 71 70 71 72 73 77 79 75 71 70 69 68 67 69 70 69 70 69 71 75 77 77 77 78 78 78 77 76
30 56 70 81 88 87 89 91 89 96 98 91 89 96 99 98 97 95 95 97 91 82 79 72 62 59 60 60 59 58 57 57 57 58 60 62 62 59 60 62 63 64 63 62 62 63 66 65 61 59 63 65 62 67 78 82 82 82 81 82 82 83 82 75 69 67 67 69 70 71 71 71 71 71 74 78 74 69 69 66 64 64 67 68 70 71 70 73 78 78 79 81 80 79 77 76 75
20 30 56 74 80 88 90 84 86 96 99 91 87 95 99 98 97 93 95 98 93 88 86 76 62 59 60 58 57 56 55 55 55 56 58 59 59 58 59 60 59 59 60 62 64 65 69 68 60 56 57 62 62 65 74 79 80 82 81 80 79 79 76 68 63 63 64 66 67 68 70 71 72 71 72 74 71 68 65 64 62 61 65 68 69 71 70 72 77 78 81 82 79 78 76 76 74
19 26 56 76 82 90 86 80 88 94 94 92 91 93 97 98 96 92 93 97 94 90 90 81 65 58 58 56 55 55 53 54 53 54 57 57 57 56 55 55 54 55 58 62 62 61 67 69 63 57 55 58 61 62 67 72 75 79 80 80 77 77 76 71 66 62 61 62 63 64 68 71 72 71 70 69 68 66 63 62 61 59 62 67 68 69 69 70 73 75 81 81 78 78 77 75 73
22 40 63 74 78 83 79 79 90 91 91 98 97 92 94 96 96 93 93 97 97 92 88 84 72 61 57 55 54 53 52 52 52 52 54 55 55 53 52 51 50 53 56 58 57 56 60 67 67 62 58 58 59 60 61 64 69 74 79 80 78 77 79 77 73 68 61 59 59 60 64 68 70 69 68 66 65 65 64 62 61 59 61 66 68 67 67 69 70 74 81 81 78 78 77 74 73
30 57 68 66 71 74 72 80 91 89 89 98 97 90 92 96 98 98 98 98 98 94 87 82 76 67 59 54 51 51 50 49 50 51 51 51 51 50 50 49 49 50 53 55 56 56 58 65 68 66 62 57 56 57 58 59 63 69 75 79 79 79 80 79 79 75 66 58 55 56 59 64 68 69 68 66 65 64 63 62 61 60 61 65 66 65 65 67 69 75 80 80 78 78 76 73 74
45 64 68 66 78 82 78 84 89 90 89 88 88 87 86 90 95 94 94 93 90 92 92 86 84 77 64 56 50 48 48 48 49 50 50 49 48 49 49 48 48 49 52 56 56 56 57 61 65 65 63 59 55 54 55 56 57 61 69 74 77 79 80 79 78 76 68 58 53 54 57 61 66 69 69 67 66 63 61 61 60 60 61 63 64 63 65 66 68 72 77 78 77 77 74 72 74
58 67 69 74 88 91 89 91 90 93 87 77 82 85 79 84 91 86 84 85 83 88 92 88 88 84 70 59 52 48 47 47 49 50 52 53 53 53 51 49 49 49 52 54 54 54 56 58 61 62 63 63 60 55 53 52 51 54 62 68 74 78 79 78 76 74 68 59 54 54 57 60 64 68 67 65 64 62 60 59 59 60 60 62 63 63 65 66 68 70 73 75 76 76 74 71 72
64 70 74 83 94 93 96 96 91 93 80 67 78 83 80 87 90 84 81 80 81 85 84 79 85 86 76 69 63 54 49 47 49 50 53 56 56 53 51 49 49 49 49 51 51 52 53 56 59 60 60 61 62 59 54 52 49 50 58 65 70 76 78 77 77 75 71 66 60 55 55 59 62 64 64 63 62 61 60 60 59 60 60 61 63 65 66 66 67 69 71 74 76 77 76 70 70
68 70 72 85 94 93 98 93 86 89 75 66 77 80 83 87 84 85 82 76 77 79 76 76 81 82 78 78 76 67 56 48 47 50 52 55 53 50 49 48 47 47 47 48 50 50 51 55 56 57 58 58 58 57 53 51 48 48 55 63 69 74 76 75 77 76 72 72 68 59 55 57 60 61 62 64 64 61 61 62 61 61 62 63 64 66 66 66 67 68 70 74 77 77 73 68 66
67 60 59 72 78 80 90 89 84 87 81 75 77 79 89 87 78 81 79 72 74 75 76 80 81 79 78 80 79 74 65 53 46 48 51 52 51 49 47 46 45 45 46 47 48 49 50 53 54 55 56 55 53 51 47 46 46 45 50 60 66 71 73 74 76 77 72 72 73 68 61 58 58 61 63 65 65 63 61 62 62 62 62 63 63 64 65 66 68 69 69 72 75 71 64 61 60
60 50 57 67 64 63 72 74 73 82 90 92 85 86 96 89 79 82 80 77 80 81 83 86 85 82 79 78 77 75 72 64 51 44 47 50 51 51 49 47 46 45 46 47 47 47 48 50 52 53 53 52 48 45 41 38 41 42 45 52 58 63 69 73 75 76 73 71 74 73 70 65 59 60 64 65 64 64 63 62 60 61 63 63 62 61 63 65 67 70 70 70 71 65 58 56 56
52 53 63 57 47 53 61 63 68 78 88 93 92 95 96 88 85 88 87 87 89 90 91 89 88 84 78 76 75 73 74 72 60 45 41 45 48 50 50 48 47 47 47 47 45 45 45 47 50 52 54 51 45 41 39 37 37 38 40 45 50 54 63 70 73 73 71 70 74 74 74 72 64 59 63 65 64 64 65 64 63 63 65 66 65 63 63 66 69 71 71 69 68 64 58 55 54
49 60 57 37 31 44 56 69 81 86 90 93 95 98 96 94 95 93 93 95 93 93 93 90 89 84 79 78 72 69 72 73 68 55 44 42 43 45 49 49 48 47 46 46 45 45 46 47 49 51 53 48 38 36 38 38 37 36 37 40 43 47 56 66 71 71 69 67 69 72 74 73 67 61 63 66 64 62 62 64 65 66 69 71 71 69 67 69 70 70 71 71 71 69 63 57 53
38 48 38 29 38 45 47 63 79 83 93 100 97 97 97 95 93 93 98 100 96 94 94 95 94 85 79 79 73 68 70 73 72 64 54 46 42 43 45 47 48 47 47 46 46 47 47 48 49 51 53 48 38 35 37 38 38 37 37 37 39 42 49 61 67 69 69 64 62 66 71 73 71 67 67 67 66 63 62 61 62 64 67 70 71 70 70 71 70 69 68 70 72 71 66 60 56
23 29 23 25 41 45 40 54 70 76 90 100 97 98 100 95 91 91 95 96 95 96 97 96 96 89 80 78 77 73 71 75 76 70 61 51 45 45 45 47 48 47 48 48 47 48 47 48 49 50 55 55 46 39 36 37 38 38 38 38 38 39 43 52 59 61 63 60 57 59 62 67 71 70 69 69 69 68 67 67 65 63 65 69 70 69 70 71 70 68 66 66 68 66 62 59 59
21 25 22 20 27 33 35 44 60 77 93 98 94 94 97 93 91 91 92 91 90 90 93 95 95 93 87 84 87 82 76 79 81 78 73 61 51 50 50 51 52 49 49 50 49 49 47 48 49 50 54 56 51 43 38 36 37 37 38 38 38 38 40 45 49 52 53 54 53 54 55 60 64 65 66 66 66 68 70 73 73 70 70 74 77 75 73 71 68 66 64 63 64 61 57 56 57
22 23 21 21 22 30 38 38 50 76 89 88 87 91 95 91 86 88 89 88 87 87 92 97 98 97 94 94 95 91 85 84 84 85 86 76 64 59 56 55 56 55 54 54 53 52 49 48 49 51 54 56 56 53 49 46 42 39 37 38 39 40 40 42 44 45 46 46 47 48 51 55 57 59 60 61 62 63 66 70 74 74 74 77 79 79 77 72 66 64 63 61 61 60 57 56 55
Wind_Speed
14 14 10 8 7 5 4 2 1 1 1 2 0 0 1 1 2 2 4 6 6 7 7 11 21 15 5 5 6 6 7 6 3 3 3 13 28 27 22 23 22 22 20 18 16 17 17 15 14 14 14 13 13 12 12 11 10 10 10 9 9 9 8 8 9 10 10 10 9 9 10 10 11 11 11 11 12 13 13 12 12 13 13 13 13 14 14 14 14 14 15 15 15 16 17 17 17
14 12 8 7 4 2 2 1 1 1 2 2 1 1 1 1 2 3 6 5 5 9 12 19 22 10 5 9 10 8 8 3 2 7 12 26 33 26 24 22 21 22 19 18 16 16 16 14 15 14 14 13 12 12 11 11 11 10 9 9 8 8 8 8 8 8 9 8 7 8 8 9 10 10 10 11 11 12 12 12 12 13 14 14 14 14 14 14 14 14 14 14 14 15 16 16 17
12 9 6 4 2 2 2 1 1 1 2 1 2 1 1 1 2 4 5 3 10 16 17 22 17 6 7 9 6 4 4 2 7 17 22 32 33 27 25 22 21 20 18 18 16 16 15 15 15 14 13 12 11 11 11 10 10 9 9 8 8 9 9 9 9 8 8 8 8 8 9 9 10 10 10 10 11 11 12 12 11 13 14 14 14 14 14 15 14 14 14 13 14 14 15 16 16
10 7 5 3 2 1 1 1 1 2 2 2 1 1 0 1 3 4 3 7 18 21 19 20 10 5 5 6 4 4 5 4 14 25 28 32 31 28 25 22 21 19 18 17 17 16 16 16 15 13 12 11 11 10 10 10 9 9 9 8 8 9 9 10 9 9 9 8 9 10 10 10 10 11 10 11 12 11 12 12 12 13 14 14 15 14 14 15 15 14 14 13 14 14 15 15 15
8 5 3 2 2 1 1 1 1 1 1 2 2 1 1 2 5 4 4 12 20 19 19 16 6 5 7 6 3 2 5 9 19 28 32 32 29 27 25 23 20 19 18 17 18 16 16 17 14 13 12 11 11 9 9 10 9 9 9 8 8 9 10 10 10 9 9 9 10 11 10 10 10 11 10 10 11 11 11 12 12 13 14 14 14 15 14 15 15 14 14 13 14 14 14 14 14
7 4 3 1 2 2 1 0 0 1 1 1 3 2 2 3 5 5 8 14 15 15 16 13 9 8 9 7 7 6 5 10 23 30 33 33 28 26 24 22 20 19 18 18 17 16 17 16 14 13 12 11 10 9 9 9 9 9 8 8 8 9 10 10 10 9 8 9 10 10 10 10 10 10 10 10 10 11 11 11 12 13 14 14 14 15 15 15 15 14 14 14 14 13 13 13 13
5 3 2 1 2 1 1 1 0 1 1 2 1 2 3 2 6 10 12 11 8 10 12 12 14 12 6 4 8 7 2 10 26 31 33 31 28 26 23 22 20 19 19 18 17 16 17 15 14 13 11 10 9 9 9 8 8 8 8 8 8 8 9 10 10 9 9 9 9 10 9 10 10 10 10 10 10 10 10 11 12 13 14 14 14 15 15 15 15 14 14 14 13 13 13 13 13
5 1 1 1 1 1 0 1 0 1 2 2 1 2 3 3 7 10 9 7 5 8 12 15 16 9 3 3 5 4 3 14 28 30 31 29 27 25 23 22 20 20 19 18 18 17 16 14 14 13 11 10 9 9 8 8 8 8 9 9 9 8 10 10 10 10 9 9 9 10 9 10 11 10 10 9 10 10 11 11 12 13 14 14 15 15 15 15 15 15 14 14 14 13 13 13 13
4 2 1 1 0 0 1 1 0 1 2 1 1 1 4 5 7 8 7 6 7 11 14 14 11 7 6 8 8 5 8 17 27 29 29 27 25 24 22 20 19 20 20 19 18 16 15 13 13 12 10 9 9 8 8 8 8 8 8 9 9 9 10 10 9 10 9 9 9 9 9 9 11 11 10 9 10 10 11 12 13 14 15 15 15 15 16 15 15 15 15 14 14 13 13 13 13
3 2 0 1 0 0 1 0 1 2 1 2 2 2 4 5 7 9 9 6 10 13 11 10 9 11 11 10 9 7 11 19 27 28 27 25 24 23 21 19 18 19 20 19 18 15 14 12 12 12 9 9 8 8 7 7 8 8 9 9 10 10 10 10 10 9 9 9 9 9 9 9 10 11 11 10 10 11 11 12 13 15 15 15 15 15 16 16 15 15 15 14 14 14 13 13 13
2 2 1 0 1 1 1 1 1 2 1 2 3 2 3 6 9 9 11 10 10 12 11 9 10 16 14 8 8 8 14 21 26 28 26 25 23 22 20 19 18 18 18 18 17 14 13 12 11 11 8 8 7 7 7 7 8 8 8 9 10 10 10 10 10 9 9 9 9 9 9 9 9 10 11 12 11 11 11 11 13 15 15 15 16 16 16 15 14 14 14 14 14 14 13 13 13
1 0 1 1 1 1 2 2 3 3 2 2 1 1 3 6 7 8 11 10 10 12 10 10 13 18 10 6 10 12 17 22 26 27 26 24 23 21 19 20 20 18 17 16 15 13 13 12 11 10 8 8 7 6 6 7 8 8 8 9 10 10 10 10 9 9 9 10 9 9 9 9 10 10 11 12 12 11 12 12 14 16 16 16 16 16 16 15 14 14 14 14 14 13 13 13 13
2 0 1 1 1 2 2 3 3 5 2 1 1 2 5 4 6 11 11 10 12 10 5 11 19 15 7 8 14 17 20 24 26 26 25 24 22 21 20 20 20 18 16 15 14 13 12 12 10 9 8 8 6 6 6 7 8 7 7 9 10 9 9 9 9 9 9 10 8 8 9 10 11 10 11 13 12 12 13 14 15 16 16 16 16 15 15 14 14 14 14 14 13 13 13 13 12
4 0 1 1 1 2 2 3 4 5 3 1 2 5 6 5 8 15 16 11 6 7 7 15 19 11 10 12 15 21 22 25 27 26 25 24 22 21 20 19 19 18 16 14 13 12 12 11 9 9 8 7 6 6 7 7 6 6 7 8 9 9 9 9 9 8 9 10 8 8 9 10 11 11 11 12 13 13 13 14 15 16 16 18 17 15 15 14 14 14 14 13 13 13 12 12 12
6 1 1 1 1 2 1 1 4 5 3 2 4 7 8 8 12 17 18 9 4 13 15 18 15 7 11 10 14 26 25 27 28 26 26 24 23 21 19 19 18 17 15 13 12 11 11 10 10 9 8 7 7 7 7 7 6 5 7 7 8 9 9 9 9 8 9 10 9 8 9 10 12 12 11 11 12 13 13 14 16 17 17 17 16 16 15 14 14 14 13 13 12 12 12 11 11
6 2 1 1 1 2 1 2 4 5 3 3 7 10 9 9 15 16 11 8 13 18 14 16 8 1 13 12 18 30 28 29 28 26 26 24 23 21 20 18 17 16 14 13 11 10 10 10 11 9 8 7 6 7 7 7 7 6 7 7 8 8 9 9 10 9 10 10 9 8 9 10 11 11 12 11 12 12 13 14 15 16 16 15 15 15 14 13 13 13 13 13 12 11 10 10 10
4 2 0 1 1 1 2 3 4 4 4 5 8 10 8 7 11 12 9 12 18 15 10 11 3 6 17 14 24 32 28 29 27 27 26 25 24 22 20 18 17 16 14 13 11 10 9 11 12 10 8 7 6 6 6 7 7 7 7 8 8 8 9 10 10 10 10 9 9 8 9 11 11 11 11 11 12 12 14 14 14 15 15 14 13 13 13 12 12 12 12 12 12 11 10 10 10
2 1 0 1 1 2 1 1 2 3 5 6 8 9 9 7 9 14 14 13 15 13 14 13 8 13 16 17 28 30 27 29 28 28 27 26 25 23 22 19 18 17 15 14 11 10 9 11 12 11 9 8 7 6 6 7 7 7 8 8 8 8 9 9 9 9 9 8 8 8 8 10 11 12 12 11 12 13 14 15 14 15 14 13 12 12 12 12 12 12 12 11 11 11 10 9 10
4 0 1 2 2 0 2 2 2 2 7 8 8 9 9 10 13 17 12 10 13 13 15 17 18 19 17 23 29 27 27 28 28 28 27 27 26 24 23 20 19 18 17 15 12 11 10 11 10 10 9 7 7 6 6 6 6 7 7 7 8 8 8 8 9 9 8 7 7 7 7 8 10 12 12 12 13 13 13 15 15 15 13 13 12 12 12 12 12 11 11 11 11 11 10 9 9
4 1 0 2 1 1 2 3 2 5 12 10 8 8 9 11 13 15 12 10 11 10 14 17 21 25 25 28 27 26 27 26 27 27 26 26 24 24 23 22 20 18 17 14 13 12 11 11 9 8 7 6 5 5 5 5 5 6 7 7 8 8 8 8 8 8 8 7 7 8 8 8 9 11 11 12 13 13 13 14 15 14 13 12 12 12 12 12 12 11 12 12 11 11 10 10 9
2 2 2 2 2 2 3 3 5 11 16 13 10 9 8 9 10 15 19 12 4 10 20 21 25 31 31 29 28 27 26 24 26 25 25 25 23 23 21 21 20 17 16 13 13 13 13 11 9 8 7 6 5 5 5 4 4 6 7 7 8 7 7 7 7 7 7 7 8 8 9 10 9 10 11 11 12 13 14 13 14 14 13 13 12 12 13 13 12 12 12 12 11 11 11 11 11
2 0 1 1 3 3 4 6 9 13 17 14 12 8 7 8 9 18 20 8 5 15 24 25 30 35 34 32 29 27 25 25 25 25 25 24 23 23 21 20 18 16 14 12 13 13 13 11 10 9 7 7 6 6 6 5 4 5 6 7 7 7 6 6 6 6 6 7 8 9 9 10 9 9 10 11 11 12 13 13 13 13 12 13 13 13 14 14 13 12 12 12 12 11 11 11 11
1 0 1 2 2 4 6 10 12 15 15 12 11 9 9 9 8 16 14 4 8 19 23 26 31 34 35 32 29 27 26 25 25 25 25 23 23 22 20 19 17 16 13 12 12 13 12 11 10 9 8 8 8 7 7 6 5 5 6 6 6 6 6 6 6 7 7 7 8 9 9 9 9 9 9 10 10 11 12 12 12 12 13 14 14 14 14 13 13 12 12 11 11 11 11 11 11
2 0 1 5 5 6 9 12 13 14 13 10 13 12 8 7 8 11 9 5 11 20 23 27 30 31 32 30 28 27 25 24 24 23 23 22 21 20 20 18 17 15 13 12 12 12 12 11 11 10 9 9 8 8 7 7 6 6 7 6 7 7 7 7 7 7 7 8 8 9 9 9 9 9 10 9 9 10 11 12 13 13 14 15 15 14 13 12 12 12 11 10 10 10 10 11 11
3 1 4 5 5 8 13 15 15 15 13 11 12 11 6 8 10 9 8 11 15 21 25 28 31 30 29 28 27 25 24 23 21 21 21 21 20 19 19 17 16 14 12 12 12 12 12 11 11 10 10 10 9 8 8 7 7 7 7 6 7 7 8 7 7 8 8 8 9 9 9 9 9 10 10 10 10 11 12 13 14 15 15 15 14 14 13 12 11 11 10 9 9 9 9 10 11
7 7 6 5 6 9 13 16 16 17 16 14 10 8 6 9 11 6 9 18 19 23 28 29 30 29 28 27 26 25 23 22 20 20 20 20 20 19 19 17 15 14 12 12 12 12 12 12 11 11 11 10 10 9 9 8 7 7 7 7 7 7 8 8 8 8 8 9 9 10 10 10 10 10 11 11 12 12 13 14 14 14 14 14 14 13 12 11 10 10 9 8 8 8 8 9 10
14 13 8 8 7 7 12 15 16 16 14 15 10 6 6 8 6 3 11 22 23 26 29 29 30 29 28 26 25 24 22 21 20 19 19 20 21 20 19 17 15 14 12 12 12 12 12 12 12 11 11 11 11 10 10 9 8 8 7 7 7 7 8 7 8 9 9 10 10 11 11 10 10 10 11 11 12 12 13 13 13 13 13 13 12 12 11 9 9 8 8 7 7 7 8 9 10
19 16 9 8 6 6 12 14 14 13 8 13 15 8 4 5 2 2 17 25 26 29 29 28 29 28 27 25 24 23 22 21 19 19 19 20 21 20 19 17 15 14 13 12 12 12 12 12 12 12 11 11 11 10 10 10 9 8 8 7 7 7 7 7 9 10 10 10 11 11 10 10 10 10 11 11 11 11 11 11 10 10 10 11 11 10 9 8 7 7 7 7 8 8 8 9 10
18 13 8 7 6 6 9 9 10 7 5 16 19 9 1 1 3 6 22 28 28 31 29 27 27 26 27 25 24 23 22 21 20 19 19 19 20 19 18 15 15 13 13 12 12 12 12 12 12 12 12 12 11 11 10 10 10 9 9 8 7 7 8 8 9 10 11 11 11 11 10 10 10 10 10 10 10 9 9 9 8 9 9 9 10 9 7 6 6 7 7 8 8 8 8 8 9
13 7 4 6 5 2 3 3 9 8 8 17 13 4 3 3 1 10 25 29 29 29 27 27 25 25 25 24 24 23 22 21 20 20 18 17 18 18 17 15 14 13 12 12 12 12 12 12 12 12 12 12 12 11 10 10 10 10 9 8 7 7 8 9 10 10 11 11 11 10 10 9 9 9 9 9 9 9 9 8 8 8 8 8 9 7 5 5 6 7 7 7 7 8 7 7 7
6 4 2 2 2 2 3 2 8 9 8 11 5 1 6 4 1 14 26 29 30 27 25 26 25 24 24 24 24 23 23 21 20 19 17 17 16 17 17 15 14 13 12 12 13 13 12 12 12 13 13 12 12 12 11 10 9 9 9 8 7 7 8 9 10 10 10 10 10 9 9 9 9 9 8 8 9 8 8 8 8 8 8 8 8 7 5 6 7 7 6 6 7 7 6 5 5
2 3 1 1 1 4 2 5 4 5 7 6 1 2 5 2 4 17 26 28 30 27 24 25 24 24 24 24 24 23 23 21 19 18 17 16 16 16 16 15 14 13 13 13 13 13 13 12 12 13 13 12 12 11 11 11 10 10 9 9 8 8 8 9 9 10 10 10 9 9 10 10 10 10 9 9 8 8 8 7 7 7 8 7 7 7 6 6 6 6 6 6 7 6 4 4 5
1 1 3 2 2 3 4 4 5 1 7 4 1 3 4 2 6 17 25 26 27 25 24 25 24 24 24 24 24 24 24 22 21 20 18 17 17 17 16 15 14 13 13 13 14 14 13 13 13 12 12 12 11 11 11 10 10 10 9 9 9 9 9 9 9 10 10 10 10 10 10 10 10 10 9 9 8 8 7 6 6 6 7 7 7 7 7 7 7 7 6 5 5 4 3 3 4
1 2 2 2 4 5 4 3 6 4 7 3 2 3 3 5 9 17 24 26 24 22 23 24 24 24 24 25 24 24 25 24 23 21 20 18 17 17 16 15 14 13 13 14 14 14 13 13 12 12 12 11 11 11 10 9 10 11 10 10 10 10 10 10 10 10 10 10 9 9 10 10 9 9 9 9 8 7 6 6 6 6 7 8 8 8 8 8 7 6 5 4 3 2 1 2 4
4 3 3 2 3 5 4 4 6 8 6 3 5 4 5 8 9 14 23 26 23 21 23 23 24 24 24 24 24 24 25 25 24 21 20 19 17 17 17 16 15 13 14 15 15 14 14 14 13 12 12 11 12 11 10 10 10 11 11 12 12 12 11 11 11 10 10 9 9 9 9 9 8 8 9 9 7 6 6 6 6 7 7 7 7 8 8 7 7 6 4 3 3 2 1 3 4
7 5 4 4 3 2 3 3 6 8 5 3 6 5 7 9 8 11 18 24 23 21 21 22 23 24 24 24 24 24 26 26 24 21 20 19 18 17 17 17 15 14 15 15 15 15 15 15 14 14 12 12 12 12 12 12 11 11 12 13 13 13 13 12 11 10 10 9 9 9 9 10 9 8 9 8 7 6 6 6 6 7 7 7 7 7 7 7 6 5 4 3 2 2 1 2 3
6 4 3 5 3 2 3 4 6 7 4 2 4 5 8 11 8 8 12 17 20 20 19 20 22 24 24 24 24 25 26 26 23 22 22 20 19 18 16 16 15 15 16 16 16 15 16 16 15 15 14 13 13 12 13 14 12 10 12 13 13 13 13 12 11 11 10 10 10 9 9 10 9 9 9 8 7 6 6 6 7 7 7 7 7 7 7 7 6 4 3 2 2 2 1 2 4
6 3 4 4 2 2 2 5 8 5 2 3 4 5 8 10 7 6 8 10 14 19 20 21 23 24 25 26 25 26 27 25 24 25 24 22 21 20 18 17 16 17 17 17 17 16 16 16 16 15 14 14 14 12 12 13 11 8 9 12 12 11 11 11 11 10 10 10 10 9 9 9 9 9 8 8 7 7 7 6 6 7 7 7 7 7 6 6 5 4 3 2 1 2 1 3 4
5 3 4 4 3 3 3 7 9 3 1 3 6 6 7 7 6 6 5 5 8 15 20 24 26 26 26 27 27 28 28 27 27 27 27 26 24 22 20 18 17 18 17 17 17 16 16 17 16 16 14 14 14 12 12 11 9 7 8 10 11 10 10 10 9 9 9 9 9 9 9 9 8 7 7 8 8 7 7 6 6 7 8 7 7 7 6 5 5 4 3 2 2 2 2 2 3
2 4 4 3 6 5 1 6 8 2 1 4 7 5 5 6 4 3 3 2 5 10 14 22 28 30 30 31 30 30 30 28 28 28 28 28 26 24 22 20 19 19 18 17 17 17 17 17 17 16 14 14 15 13 11 10 8 8 8 9 10 9 9 9 9 9 9 9 9 9 9 9 8 7 7 7 7 7 6 6 7 8 8 8 7 7 6 5 5 4 3 2 3 2 1 1 3
2 4 5 5 7 5 4 7 6 3 1 4 8 4 3 7 8 5 3 1 3 6 9 17 26 31 32 32 32 32 31 31 30 29 29 29 28 26 24 22 21 21 20 17 17 17 17 17 17 16 14 13 14 14 12 10 9 9 10 11 12 11 11 11 11 11 10 9 9 9 9 8 8 7 7 7 7 6 6 6 7 8 8 8 8 7 6 6 5 5 4 3 3 2 0 2 3
2 4 6 8 9 7 10 12 8 3 2 5 8 4 2 7 11 9 5 2 4 4 6 14 24 27 27 29 31 31 31 31 31 31 31 30 29 27 25 24 23 22 20 17 16 16 17 17 16 16 15 13 14 14 13 11 10 10 11 12 13 13 13 12 11 10 10 9 9 9 9 8 8 8 8 7 7 7 7 7 7 8 9 9 8 7 6 6 6 6 5 4 3 2 1 1 2
1 5 7 8 9 11 14 14 8 3 2 5 5 1 1 5 9 9 7 6 6 4 5 13 22 24 25 29 31 31 31 31 32 32 32 32 30 29 27 26 24 23 21 19 17 17 17 17 16 16 15 14 14 15 14 13 12 11 11 12 12 12 11 9 9 9 9 9 9 9 9 8 8 8 8 7 7 7 7 7 7 8 9 9 8 7 7 7 7 6 5 5 4 2 1 1 1
2 5 8 12 10 12 14 11 5 2 3 4 4 0 2 2 6 8 8 8 8 7 6 9 19 25 27 30 31 31 32 32 33 33 33 34 32 30 28 26 24 22 21 20 18 16 17 17 15 14 14 14 14 15 15 14 13 12 12 12 12 10 8 7 8 9 9 9 9 8 8 8 8 8 8 8 7 7 7 7 7 8 9 8 8 7 8 8 8 8 7 6 4 2 2 1 1
3 1 7 10 9 10 9 5 2 2 4 3 5 3 1 1 3 7 8 8 9 11 9 8 17 25 28 30 31 32 33 34 35 35 35 35 34 31 28 25 24 23 21 20 18 16 16 17 15 13 13 14 15 15 15 14 13 13 13 12 11 9 8 8 8 7 8 8 7 7 7 7 7 7 8 8 8 8 8 8 8 9 9 9 8 8 8 8 9 8 8 7 5 3 3 2 1
1 7 11 9 9 8 6 4 3 3 2 3 8 6 2 1 3 6 9 9 10 11 8 8 15 22 26 29 31 32 33 35 36 37 37 36 34 31 28 26 24 23 22 21 19 17 16 16 16 14 13 14 15 15 15 14 14 14 15 14 11 9 8 8 8 7 7 7 7 7 7 6 6 6 7 7 8 8 8 8 9 9 10 9 9 9 9 9 9 9 8 8 6 5 5 4 2
8 10 11 9 6 5 5 3 3 3 2 3 9 9 2 0 4 7 8 6 8 9 5 6 11 17 22 26 29 31 33 35 37 38 38 37 35 32 30 27 25 24 23 22 21 18 16 16 15 14 13 13 14 15 15 15 15 15 16 15 12 10 8 8 8 8 8 8 7 7 6 6 6 6 6 7 7 8 8 9 9 10 10 10 9 10 10 10 9 9 8 8 8 7 6 5 3
9 6 6 7 3 3 4 3 4 3 3 3 8 9 2 1 4 6 6 4 8 10 7 8 11 16 22 25 27 30 32 35 37 38 38 37 36 34 32 30 28 27 25 24 22 19 17 16 15 15 15 14 14 14 15 16 16 15 16 15 13 10 9 8 8 8 8 8 8 7 7 7 7 7 7 7 7 8 8 9 10 10 10 10 9 9 10 10 9 9 8 8 8 8 8 8 6
6 5 6 6 2 2 3 2 2 1 4 2 8 9 2 3 3 3 6 7 11 14 14 15 15 19 24 24 24 26 30 34 37 38 38 37 37 36 35 33 31 29 27 25 23 20 18 17 16 16 16 16 15 15 15 16 17 16 15 15 14 12 10 9 8 8 9 8 8 8 8 8 8 7 6 6 7 7 8 8 9 9 9 9 9 9 9 9 9 9 8 8 8 9 10 9 9
6 7 6 5 3 2 2 1 1 2 5 2 7 8 2 3 1 1 4 7 15 20 20 19 20 22 24 23 21 21 25 30 34 37 38 38 38 37 36 34 32 30 27 26 24 22 19 18 17 16 16 17 16 16 17 18 18 17 17 16 14 13 12 11 9 8 9 9 8 8 8 8 7 6 5 5 6 7 7 7 7 8 8 9 9 9 10 9 9 9 8 8 9 10 10 10 10
6 6 5 6 5 4 4 4 2 2 2 1 6 5 2 1 1 4 7 8 16 22 21 19 21 22 22 22 20 18 20 25 29 34 37 38 39 38 37 35 33 31 29 27 25 23 21 19 17 16 16 17 17 17 18 19 19 18 18 18 16 15 14 12 10 9 10 10 9 9 8 8 8 7 5 6 7 6 7 7 7 7 8 8 9 10 10 10 9 9 9 9 10 10 10 10 10
4 3 5 4 5 5 3 3 4 4 2 2 3 2 2 2 3 5 2 7 13 19 22 22 21 19 19 19 19 18 17 19 23 29 34 37 38 38 38 37 34 33 30 29 26 24 21 19 18 16 16 17 18 18 18 19 19 19 19 19 18 17 15 14 12 11 11 11 10 9 8 7 7 7 7 7 7 7 7 7 7 7 7 8 9 9 9 9 9 9 9 9 10 10 10 10 10
2 2 4 3 3 6 5 3 3 3 3 1 1 1 2 1 3 4 5 9 11 13 17 21 21 18 17 17 18 17 16 15 19 24 29 34 37 38 38 38 36 35 33 30 28 24 21 19 18 17 16 17 18 18 18 19 19 19 19 19 19 18 16 15 14 13 12 11 10 10 9 8 8 8 8 8 8 8 7 7 7 7 7 8 9 9 8 9 9 9 8 8 9 10 10 10 11
6 3 6 2 3 3 4 3 2 3 1 1 1 1 2 0 1 1 6 10 11 10 11 16 20 19 18 16 17 18 16 13 16 20 25 29 33 36 38 38 37 36 33 31 28 25 22 19 18 17 16 17 19 19 19 19 19 19 19 19 19 18 17 15 14 13 13 12 11 10 9 9 9 9 9 9 9 9 8 9 8 8 8 8 8 8 8 9 9 9 8 8 9 10 11 10 11
5 6 6 4 2 1 1 3 2 2 1 2 2 1 2 2 2 2 6 9 11 11 11 11 14 18 19 17 17 19 17 15 15 18 22 26 30 34 37 38 37 36 35 33 30 27 24 20 18 17 16 16 18 19 19 18 18 18 18 18 18 18 18 17 15 15 14 13 13 12 10 10 10 10 10 10 10 11 10 10 10 10 10 9 9 8 9 9 10 9 9 9 9 10 11 10 10
3 6 6 2 2 4 2 2 3 4 2 2 0 1 2 3 2 2 6 7 9 11 11 9 11 16 21 20 20 21 21 18 17 18 21 24 27 31 34 36 37 36 35 35 33 29 25 22 20 19 18 17 17 19 19 19 18 18 17 18 18 18 18 18 17 16 15 15 13 13 12 11 11 11 11 11 11 11 12 12 11 12 11 11 10 9 9 10 10 10 10 9 9 10 10 9 9
4 5 4 1 2 3 2 2 1 4 4 3 2 0 3 2 1 2 4 6 7 9 10 9 10 14 18 19 19 22 23 21 19 18 18 21 25 28 32 34 35 36 36 36 34 30 27 24 23 22 20 17 16 17 17 18 18 18 18 18 18 19 19 19 18 17 16 15 14 13 12 12 12 12 12 12 12 12 13 13 12 12 12 12 11 11 10 11 11 11 10 10 10 10 9 8 8
6 6 6 5 3 4 4 1 1 2 3 3 4 2 4 1 1 1 4 6 6 9 10 9 10 13 15 15 16 19 22 23 21 18 16 17 21 23 27 31 34 36 37 36 35 32 29 27 25 24 23 20 18 16 16 16 16 18 18 18 19 20 20 20 19 19 18 17 16 14 13 12 12 12 12 12 12 12 13 13 13 13 13 13 12 12 11 12 12 12 11 11 10 10 10 9 8
Wind_Direction
147 143 136 131 132 131 126 138 107 356 71 76 22 83 267 162 122 109 122 133 115 164 166 143 151 143 123 160 158 106 94 140 161 145 166 149 147 151 151 153 151 148 147 140 135 126 121 119 116 112 110 111 110 109 106 108 110 109 108 107 107 110 113 116 120 119 115 115 116 119 123 130 132 129 128 128 129 128 126 128 131 127 122 117 111 108 108 109 111 109 108 106 107 110 114 117 116
147 144 141 135 138 125 121 147 79 30 64 53 298 169 266 16 103 137 157 155 124 159 153 144 150 137 116 141 130 93 74 79 132 129 134 143 147 151 152 153 149 148 147 141 136 125 122 118 113 111 110 110 108 106 103 105 107 107 109 110 112 114 115 116 122 122 117 119 123 126 127 128 131 131 129 127 130 129 128 133 133 129 125 121 115 112 111 110 110 109 108 107 108 109 113 116 116
139 135 136 139 142 109 99 80 91 104 77 107 263 296 358 86 142 165 176 135 127 142 140 143 145 110 109 120 110 92 85 63 132 132 135 146 150 153 154 152 150 150 145 141 137 129 125 119 115 114 114 112 109 107 105 105 106 110 111 111 112 111 111 112 119 124 123 124 126 126 125 127 131 131 129 130 132 132 134 138 135 132 127 122 117 114 113 113 112 111 109 110 111 110 113 113 112
131 126 124 123 111 80 68 71 101 112 111 154 209 284 268 159 149 147 147 122 135 141 136 141 131 81 106 103 83 83 102 120 141 140 142 150 153 154 154 152 152 151 147 144 139 134 128 121 118 117 117 115 110 107 107 107 109 111 111 111 110 109 109 108 113 122 124 124 122 121 120 123 129 130 130 132 135 139 141 142 138 133 127 123 120 117 117 117 115 113 112 113 114 115 116 113 108
131 122 121 111 81 59 62 63 9 93 154 169 140 185 238 117 133 135 119 128 139 142 141 143 119 86 97 79 53 87 122 138 146 146 147 152 155 154 154 152 153 152 148 145 141 137 130 122 120 120 116 113 110 108 109 109 111 109 108 110 108 111 111 107 111 119 121 118 116 117 118 121 126 128 130 132 136 142 142 140 138 134 129 126 125 122 122 122 119 116 116 116 116 119 117 111 107
137 117 125 111 78 96 93 59 5 114 269 158 125 139 142 112 124 125 118 131 136 139 146 144 131 111 91 60 54 96 124 147 150 149 149 152 156 155 152 151 153 151 148 146 142 140 133 123 123 122 116 115 112 110 107 107 109 108 110 111 110 111 110 107 109 115 115 110 109 111 115 120 123 126 132 137 140 140 140 137 135 134 131 130 128 125 125 125 122 119 118 117 118 117 112 108 107
137 114 127 91 70 77 69 106 194 168 349 16 98 114 133 115 118 122 120 132 130 132 145 142 136 114 84 76 72 84 78 158 153 149 150 152 155 154 151 152 153 152 149 148 145 142 134 125 128 122 118 119 113 109 107 110 110 110 113 111 110 110 108 106 109 112 111 108 108 108 114 120 120 123 131 141 142 137 136 134 133 131 130 130 129 126 126 125 123 120 117 117 116 112 108 108 107
147 127 87 53 52 28 51 103 269 157 37 15 47 90 117 108 123 130 122 130 134 128 133 137 138 111 68 117 89 84 111 156 151 147 150 152 154 152 151 154 155 154 151 151 148 147 138 129 130 121 119 118 114 112 107 111 108 108 113 113 114 113 109 107 110 109 108 110 112 112 118 122 121 121 125 133 136 135 134 132 132 129 130 131 129 127 126 124 121 118 115 116 114 111 110 109 106
170 222 74 81 24 341 140 87 138 112 43 45 47 84 110 107 120 131 116 109 126 124 128 138 140 116 105 101 97 115 131 153 149 145 151 152 153 151 153 156 158 156 153 154 150 150 142 131 129 118 117 119 115 111 107 109 107 112 116 120 119 116 112 109 110 108 110 112 111 112 114 118 120 123 122 126 129 132 133 131 132 132 135 134 128 128 126 124 120 117 116 117 115 113 112 109 105
180 235 319 95 185 92 141 144 159 88 65 81 40 103 116 106 111 120 116 110 128 123 129 140 124 119 118 95 96 124 138 152 149 146 151 151 152 151 153 156 159 158 154 154 149 151 141 130 127 116 116 119 113 109 112 115 114 118 121 125 120 113 111 112 113 109 109 108 107 107 108 115 120 124 123 122 126 129 129 128 131 133 135 132 128 128 127 124 121 118 117 116 114 112 109 107 103
181 236 286 75 136 122 178 181 139 79 93 94 39 78 119 113 102 106 112 114 127 122 132 138 117 119 113 88 103 130 143 152 151 149 151 151 153 152 153 154 159 157 153 151 149 150 141 134 126 115 121 119 111 112 119 123 124 125 127 126 118 111 110 112 112 108 107 105 105 104 106 111 115 121 120 119 124 127 126 127 130 131 133 132 131 129 125 123 119 116 114 114 113 109 107 105 102
208 266 108 97 169 189 183 155 129 112 96 98 32 44 123 109 98 115 116 117 126 120 133 146 139 127 103 86 123 140 147 153 153 149 151 153 153 153 153 153 156 155 152 151 150 150 144 141 129 122 130 121 114 117 122 130 127 126 129 124 114 111 110 111 108 106 104 100 100 100 103 107 111 119 119 118 121 124 125 127 128 129 132 131 130 127 123 120 116 114 114 115 113 109 107 104 101
223 63 117 129 178 176 159 139 125 124 115 96 104 146 126 81 105 130 117 115 124 119 130 149 148 132 98 117 136 147 150 155 155 151 153 154 154 154 154 153 153 153 154 155 152 151 149 146 136 136 137 125 125 130 132 128 124 130 130 119 113 111 109 108 106 103 100 100 103 103 105 107 109 113 115 115 116 121 124 126 125 124 128 128 128 124 122 120 115 115 115 115 114 109 105 104 101
215 167 152 176 134 160 140 131 144 140 147 123 120 147 123 68 121 136 124 115 112 127 133 145 147 126 118 130 144 155 155 157 156 154 156 155 156 156 155 154 153 153 156 158 157 157 153 149 146 146 138 132 138 137 130 122 129 136 121 114 115 112 107 105 108 106 102 105 109 107 109 110 109 109 108 111 114 119 123 127 124 123 128 130 129 126 125 123 117 115 115 116 115 109 103 102 99
222 190 108 245 119 154 174 132 151 147 153 145 148 144 107 86 130 136 131 118 101 135 133 142 143 122 149 156 161 163 158 157 158 158 158 156 157 158 158 155 155 157 158 160 162 161 156 153 153 149 143 142 142 131 127 131 138 126 110 115 118 116 111 108 112 110 105 107 109 107 107 108 109 110 108 109 115 117 123 129 127 127 131 130 127 125 126 124 119 116 115 114 112 108 103 99 95
225 189 66 255 156 155 207 156 136 143 169 146 149 141 102 96 129 132 134 125 128 135 131 143 145 130 166 168 166 163 157 158 160 160 159 158 160 160 159 158 159 159 160 164 165 164 161 160 156 150 147 143 140 132 133 137 131 124 120 119 119 123 121 117 119 118 114 113 113 109 105 103 103 109 111 111 114 115 119 124 125 126 126 125 122 122 125 124 120 115 112 112 111 109 103 97 91
231 201 139 254 198 187 192 176 153 148 153 137 155 152 121 105 119 126 136 131 134 135 126 142 154 153 159 166 164 159 155 160 162 161 160 161 162 161 161 161 162 162 164 167 167 166 166 163 155 150 148 142 146 141 136 131 127 136 132 123 125 129 131 128 126 124 124 119 109 104 103 104 106 110 113 114 115 117 117 119 123 123 122 121 119 120 122 121 118 112 109 110 109 107 100 93 88
224 176 266 289 243 205 193 165 134 127 136 141 164 155 133 122 115 126 127 121 126 117 115 125 116 137 154 162 160 156 157 163 164 164 163 164 165 163 163 165 167 167 168 168 166 165 165 162 155 151 151 149 152 147 142 139 135 143 136 129 132 134 139 135 126 124 123 113 102 101 105 108 112 116 118 120 119 121 122 124 124 119 119 121 119 119 116 114 114 111 106 104 102 99 94 87 85
214 124 34 279 270 319 27 70 49 79 137 138 150 144 128 126 129 135 129 115 119 104 108 118 116 126 144 154 156 157 162 166 167 167 167 167 168 166 166 168 171 172 170 168 163 161 161 159 155 151 151 148 149 149 155 153 143 144 140 134 133 137 144 135 125 124 119 109 109 113 113 113 114 116 120 121 121 124 124 123 119 117 122 125 122 118 113 113 112 108 102 98 96 93 89 81 77
215 188 242 262 254 129 89 119 99 119 139 132 134 137 122 127 140 144 133 119 123 121 128 127 125 133 144 153 157 161 166 169 169 170 171 171 171 171 170 170 174 175 170 165 160 158 156 155 154 152 148 145 147 153 162 164 154 149 143 134 132 137 141 137 129 127 122 119 125 126 124 123 119 117 118 120 124 126 124 120 119 123 128 126 123 117 112 111 108 104 98 95 94 92 90 86 80
176 189 246 229 190 154 111 130 139 138 144 136 131 134 122 131 146 146 136 126 137 156 154 151 147 146 150 155 160 165 170 171 172 175 175 175 175 176 176 174 175 174 169 163 159 156 151 152 153 153 152 152 152 158 167 173 167 152 144 138 136 140 141 140 134 130 131 135 137 133 129 125 124 125 124 125 128 128 126 125 127 129 127 123 120 113 109 108 105 102 100 98 95 91 89 87 84
119 139 293 166 184 167 116 133 140 140 142 133 127 129 131 129 136 150 147 142 184 168 163 163 158 155 158 160 162 168 172 174 177 179 179 179 178 179 179 177 176 172 170 164 158 155 151 151 153 156 157 157 162 166 168 173 168 149 143 143 141 144 144 141 134 134 139 142 142 135 131 128 127 133 131 128 129 128 129 132 131 130 126 122 119 114 111 109 107 106 103 99 93 88 85 83 82
111 209 278 38 148 165 136 136 137 139 135 128 129 123 127 117 120 155 154 130 171 166 164 162 158 159 161 162 165 170 174 178 181 181 183 183 179 179 179 178 177 172 170 165 159 156 154 153 156 162 161 161 168 169 166 166 158 143 141 147 146 143 142 140 132 134 139 142 142 137 133 132 129 133 134 129 126 127 132 136 134 129 126 124 120 118 116 113 111 109 104 97 89 85 82 80 79
136 243 186 75 110 155 145 136 132 131 119 117 128 117 114 110 123 158 148 120 160 163 161 159 156 158 161 163 168 172 177 180 182 184 186 185 182 181 180 180 178 173 171 166 162 159 154 156 161 165 163 164 170 168 163 158 154 145 141 146 145 142 140 137 133 132 137 143 145 139 135 133 129 128 130 130 129 130 134 135 132 128 126 123 121 120 118 115 113 111 105 98 90 83 80 79 77
166 169 153 108 122 147 142 132 124 123 118 121 114 95 88 107 126 146 139 144 159 160 157 155 155 158 163 166 170 174 178 181 184 187 189 190 188 184 183 183 179 175 174 168 165 161 157 161 164 165 164 165 168 167 160 155 155 149 142 145 144 142 141 138 136 134 134 141 144 139 132 128 129 127 127 134 137 135 134 133 129 127 126 124 123 122 120 119 118 116 112 104 93 82 78 79 76
182 165 155 131 129 134 129 123 121 122 130 141 116 76 90 112 123 123 142 154 159 158 154 154 157 160 165 169 174 177 180 183 185 188 192 193 191 189 188 186 182 178 177 173 168 162 160 163 163 163 164 163 165 163 157 154 154 149 143 147 143 142 146 143 141 137 134 137 138 135 127 124 130 129 127 133 137 136 134 132 129 128 128 128 128 127 126 127 127 122 117 109 94 83 79 79 77
160 145 130 123 123 126 119 114 120 118 127 150 132 77 95 113 118 110 151 157 158 156 152 156 160 163 167 172 177 181 184 185 186 191 194 195 194 194 191 189 186 181 181 178 171 165 163 163 160 160 160 160 162 159 156 152 151 149 145 144 142 145 150 148 144 137 134 135 135 133 126 126 131 133 133 135 136 136 135 132 131 132 133 134 134 133 133 133 132 126 120 110 97 86 81 82 83
147 133 114 116 112 112 114 113 125 118 120 145 123 85 74 86 42 145 155 158 160 156 154 159 162 164 168 173 180 185 189 188 191 195 197 199 197 195 194 191 187 184 185 181 175 170 166 163 160 158 157 157 159 156 153 150 150 149 143 140 141 149 150 148 145 137 135 134 135 134 130 131 133 137 140 141 141 141 142 140 138 138 140 143 142 138 134 134 133 128 122 110 99 91 87 90 89
142 133 115 128 122 103 105 115 137 121 117 137 120 91 42 55 5 158 159 159 160 157 156 161 163 165 169 173 181 187 192 192 196 200 202 202 199 198 196 192 190 188 187 183 180 175 169 166 162 159 156 154 154 153 150 149 151 148 143 140 142 150 150 149 148 142 140 137 135 135 135 137 137 139 141 143 146 148 150 152 151 148 147 152 152 146 138 136 137 134 126 111 100 96 95 95 87
136 127 108 137 129 76 10 98 130 111 128 142 126 103 199 223 327 157 161 160 158 156 159 163 164 167 169 174 182 188 194 197 200 202 204 205 203 201 197 194 193 190 190 186 182 180 173 169 164 159 156 152 152 152 150 149 151 152 149 145 144 151 150 152 153 149 147 142 138 137 140 146 147 147 146 148 151 150 151 153 154 154 155 162 166 166 159 152 150 142 129 113 107 103 97 89 77
127 100 80 124 120 151 304 277 132 114 152 157 116 120 179 215 178 157 164 162 158 157 161 166 167 169 171 176 183 189 196 201 204 203 205 207 206 203 201 198 193 192 194 186 182 183 178 173 165 158 155 154 153 152 153 153 154 159 159 153 152 157 155 157 162 159 153 147 144 143 146 154 157 159 159 159 161 157 155 153 153 157 160 169 177 181 175 165 159 151 138 122 117 109 92 72 58
126 106 124 321 87 146 170 227 182 112 164 179 71 134 160 203 160 159 166 165 161 160 163 169 170 173 175 179 186 192 198 205 207 206 207 207 206 204 203 201 195 192 192 186 184 185 182 177 167 159 158 156 154 152 156 158 160 165 166 164 164 166 164 162 168 169 161 154 154 152 152 158 161 163 162 160 160 158 156 155 156 160 162 167 173 175 169 164 160 156 147 131 123 112 86 48 27
192 98 153 175 137 154 147 202 265 65 141 174 228 154 136 164 160 159 167 167 163 161 165 171 173 176 179 182 188 193 198 206 209 210 209 206 206 204 203 203 197 192 191 188 185 185 184 179 170 164 161 159 156 153 155 159 164 167 168 168 168 171 172 170 172 173 168 163 163 161 158 161 163 163 161 158 156 155 155 155 159 165 166 167 166 162 160 159 155 152 147 134 126 113 77 22 2
237 64 128 170 144 165 154 169 250 197 146 166 181 137 122 146 145 155 169 168 164 164 167 173 175 179 182 185 191 195 199 206 208 208 206 205 205 204 205 202 197 194 193 190 187 186 184 178 172 169 166 163 159 155 155 159 166 170 171 169 168 172 177 178 178 177 174 169 167 167 165 165 165 165 164 159 155 155 157 158 166 172 172 170 163 158 158 157 153 151 151 143 132 118 62 10 1
172 137 128 162 152 176 176 157 190 175 153 139 140 124 119 137 134 148 168 171 167 169 172 175 177 181 185 188 193 197 202 206 206 204 204 203 203 206 207 204 199 197 194 192 190 187 185 182 176 173 171 167 163 157 156 160 165 169 170 169 171 174 177 180 182 182 178 174 169 167 167 169 170 171 169 163 157 158 163 167 172 175 175 173 167 162 162 161 161 159 153 150 139 126 45 13 13
161 144 136 168 169 167 161 129 150 155 140 128 147 142 135 147 145 139 160 172 173 172 176 179 181 184 187 191 196 200 205 208 205 205 206 204 204 206 207 205 202 198 195 193 192 189 186 185 180 177 175 172 171 165 159 161 163 166 171 172 174 174 173 174 176 179 179 175 172 170 168 172 176 178 176 170 163 161 166 173 174 172 170 172 172 167 164 165 169 165 154 155 150 141 31 3 11
134 122 144 173 154 113 120 120 140 148 141 161 163 144 146 158 153 127 143 165 173 175 177 182 185 186 189 193 198 202 206 207 206 208 210 208 206 207 207 205 202 198 194 193 194 192 188 187 185 181 177 177 181 173 164 165 165 166 172 176 176 170 168 169 170 173 175 175 176 176 172 173 176 181 181 176 172 167 168 170 166 160 159 167 172 168 167 169 168 164 162 173 173 168 295 340 356
137 150 162 157 134 113 92 118 140 148 138 180 177 145 155 163 144 129 145 155 172 180 181 184 188 189 191 195 199 203 207 209 211 213 215 214 211 209 208 205 200 195 192 194 195 193 190 191 190 187 183 181 184 179 169 168 168 164 169 176 176 168 163 165 166 168 171 174 177 179 178 176 173 172 172 174 177 175 170 167 161 156 156 162 168 171 177 178 171 170 174 194 211 202 281 329 350
149 163 157 151 140 112 83 122 133 131 39 161 179 164 159 164 136 127 148 142 165 182 186 188 189 190 192 195 199 204 207 211 214 215 216 217 215 211 208 205 199 192 190 191 193 194 196 196 194 194 191 183 183 180 168 164 164 162 164 171 173 169 163 161 163 167 171 170 171 175 180 182 177 166 162 167 175 176 169 162 161 162 160 161 170 174 178 181 179 180 183 201 235 236 278 327 1
145 159 152 161 163 146 134 145 133 106 5 161 174 164 144 157 138 101 109 126 171 184 195 195 192 193 196 198 201 204 206 208 212 214 215 216 214 212 210 206 201 195 191 190 191 194 198 200 199 198 195 187 184 179 164 160 164 165 163 167 171 169 164 163 166 171 173 171 171 175 179 183 183 174 168 169 173 173 167 165 165 167 166 167 173 172 173 179 176 175 183 205 231 244 273 14 32
239 181 162 160 167 152 108 131 123 89 99 160 162 158 162 165 166 172 146 143 216 205 208 204 198 198 198 199 202 205 206 207 210 211 212 212 212 213 212 209 204 199 196 195 195 195 197 202 203 202 200 192 187 179 166 165 170 168 166 168 172 170 167 171 175 175 176 175 175 178 180 181 181 179 179 177 179 178 175 175 174 172 169 169 169 168 173 177 169 168 180 200 218 230 173 77 53
280 229 197 171 159 129 113 128 131 127 177 183 172 176 202 170 172 182 169 171 232 224 224 213 204 201 199 199 203 206 208 210 212 213 212 211 213 213 214 213 209 205 202 201 203 200 197 200 202 203 202 197 189 180 172 174 174 172 173 174 174 173 173 176 175 173 173 171 173 177 180 180 179 179 181 182 185 185 181 181 182 178 172 168 166 166 172 174 171 174 181 194 203 200 152 75 51
243 237 190 157 141 128 135 147 150 156 176 182 187 195 136 169 179 182 173 185 214 226 237 220 207 202 200 202 204 206 207 209 211 214 213 212 213 213 213 214 212 209 205 204 207 206 200 199 200 200 199 197 192 183 179 181 182 183 184 180 180 182 179 172 167 165 164 164 169 174 176 176 177 179 181 185 189 188 184 181 184 183 177 173 169 169 173 175 183 188 187 193 194 180 170 103 68
246 243 161 148 141 140 153 158 157 134 105 150 200 192 72 176 186 178 175 188 210 222 235 223 207 202 202 205 207 207 208 208 209 210 212 212 213 212 212 213 212 209 207 205 206 206 200 197 197 198 197 197 196 190 187 188 190 193 195 189 186 186 177 165 161 161 161 164 168 171 173 172 175 178 181 186 191 191 187 182 185 189 186 182 178 176 178 182 192 195 192 195 195 195 204 184 127
264 261 127 140 130 131 148 136 109 107 101 159 206 182 83 275 179 165 180 196 208 214 220 216 204 202 203 205 208 209 209 210 210 211 212 213 214 214 212 210 210 209 208 205 204 203 198 195 195 197 198 198 200 199 195 194 195 198 201 196 187 178 169 166 167 165 166 169 170 173 175 174 177 180 182 187 191 192 193 190 190 192 192 190 187 186 184 186 192 195 196 202 206 215 225 210 156
155 96 90 93 86 89 99 81 70 72 71 190 197 185 152 245 185 171 193 209 208 207 211 208 201 201 202 204 207 209 208 209 211 212 214 215 216 215 211 209 210 209 208 206 206 204 198 196 196 197 197 198 202 204 202 201 200 201 203 199 189 177 172 174 179 180 178 175 175 178 180 181 184 186 187 188 190 193 195 195 194 195 198 197 194 191 189 189 193 197 202 209 216 228 233 224 196
119 98 89 78 67 68 68 54 67 73 319 227 186 181 153 216 207 190 199 206 193 192 192 190 189 190 195 200 204 206 206 207 209 210 212 215 215 214 211 210 210 211 210 208 207 207 202 199 198 198 198 200 202 205 206 206 205 203 202 200 195 187 183 187 190 192 192 185 179 181 182 185 190 194 197 196 197 199 198 196 196 198 202 201 197 193 191 194 199 205 212 216 224 235 239 232 221
114 101 117 96 46 25 44 7 33 87 266 249 170 167 139 250 226 209 206 178 171 182 182 181 174 171 181 190 198 202 203 205 206 206 208 209 209 211 211 211 212 212 212 209 208 208 205 201 200 199 200 203 207 208 208 209 208 206 204 202 198 195 196 200 200 203 204 196 185 184 187 189 194 198 203 204 204 205 202 197 196 199 202 202 199 196 196 201 206 213 220 224 230 243 248 238 229
113 116 132 102 58 17 48 344 1 150 265 274 156 157 162 247 236 212 204 183 178 186 188 182 167 165 176 180 186 193 198 202 204 203 204 204 205 208 211 212 213 214 212 210 209 208 206 203 202 202 202 204 210 213 212 213 213 211 209 207 201 200 204 205 208 215 213 206 198 193 191 193 198 201 203 208 210 207 205 200 199 200 203 204 203 204 206 209 213 218 224 230 237 248 253 244 233
136 142 142 112 112 98 92 287 331 248 279 312 147 157 225 259 223 225 235 206 187 189 189 178 166 170 175 170 170 180 192 199 202 202 202 203 206 209 211 212 213 214 213 212 211 209 207 205 203 204 205 206 210 215 215 216 216 214 212 211 208 206 208 208 214 223 219 213 207 201 198 198 203 207 203 206 215 211 203 202 203 203 204 206 209 212 213 216 222 225 226 233 241 248 252 248 238
168 163 139 139 154 145 162 191 185 196 257 63 139 163 222 218 263 279 257 215 183 181 180 167 164 172 171 166 166 168 180 194 201 203 203 204 208 210 212 213 214 214 213 213 213 211 209 208 206 207 208 207 210 216 218 217 216 215 214 214 215 214 212 213 219 226 224 216 211 209 207 202 203 207 204 206 214 214 206 206 208 210 212 214 217 220 222 226 231 233 232 236 241 246 247 247 244
201 147 113 154 182 154 142 163 157 151 133 114 162 197 233 202 287 306 230 164 153 156 159 155 157 166 166 168 171 167 172 187 197 203 205 206 208 210 212 214 216 216 215 215 215 212 210 209 209 210 211 211 211 215 219 218 217 217 216 217 220 219 216 216 221 226 224 218 215 215 215 213 206 203 205 208 213 212 208 209 209 212 219 223 226 228 229 231 234 237 238 238 240 243 242 243 245
149 119 159 201 165 129 115 109 97 101 118 196 207 288 309 267 306 350 94 126 134 140 151 154 157 166 172 175 178 177 176 180 189 199 205 209 210 211 213 215 217 216 216 217 217 215 212 211 212 213 214 214 213 216 219 218 217 219 219 219 221 222 218 218 222 225 225 223 221 218 217 217 210 203 204 209 217 217 210 209 208 207 215 222 228 231 231 233 236 241 243 243 243 243 240 239 240
131 172 190 168 79 86 102 110 61 57 116 264 304 284 286 261 283 37 110 132 149 153 159 162 166 176 185 189 188 189 187 184 191 197 203 210 213 214 216 216 217 218 218 220 220 218 215 215 217 218 218 215 212 214 218 219 219 219 219 219 220 221 220 220 222 226 230 231 227 224 220 217 213 208 206 210 219 223 220 219 216 213 217 221 225 230 232 235 241 244 246 247 246 244 242 239 238
144 165 157 123 126 169 103 121 134 106 126 279 311 318 260 194 196 180 148 150 158 159 160 163 171 181 190 200 203 202 201 197 200 203 205 210 215 218 218 217 217 218 219 221 222 220 218 218 220 223 225 221 215 214 217 219 221 220 220 221 222 223 222 222 222 225 231 234 231 228 225 222 219 215 214 216 220 225 227 228 227 224 225 227 229 233 235 238 244 247 249 248 244 242 242 240 237
60 127 133 103 138 162 154 136 149 138 148 231 261 350 262 215 220 202 166 159 154 155 159 161 167 177 188 201 207 209 210 204 203 207 207 208 213 218 220 219 219 219 220 222 222 221 220 220 221 224 227 226 221 217 216 218 220 221 221 222 223 223 223 224 224 226 230 234 234 231 227 226 226 224 224 225 226 227 228 231 233 229 226 229 234 237 238 241 245 248 251 250 246 245 244 241 238
106 129 152 145 77 125 131 90 88 123 144 179 144 254 260 230 262 242 151 143 153 156 154 154 163 174 183 192 196 202 209 206 201 202 204 207 211 215 218 219 220 221 221 222 222 221 221 222 223 225 226 226 221 218 219 219 220 221 222 223 223 224 224 224 226 227 230 233 234 233 229 227 229 230 231 233 233 232 231 233 235 231 227 230 237 242 244 246 248 249 250 250 249 250 248 245 243
145 155 173 167 130 123 127 136 303 106 129 164 151 194 261 267 305 259 131 129 145 139 128 129 147 165 175 181 183 191 201 204 202 198 195 202 208 212 215 217 219 220 221 222 222 221 221 222 224 227 228 228 226 222 222 224 223 223 223 224 224 225 226 226 227 229 231 233 234 234 231 229 230 233 236 238 239 239 237 236 236 234 233 235 241 248 250 251 251 253 253 252 252 253 254 252 249